This is the latest recevied weather packets stored in our database for station/object KI5PFS. If no packets are shown the sender has not sent any weather packets the latest 10 day(s).
| Time | Temp. | Humidity | Pressure | Rain* | Wind** | Luminosity | Snow |
|---|---|---|---|---|---|---|---|
| 1787868003 | 37.22° C | 39% | 1010.1 hPa | 0 mm | - | - | - |
| 1787867403 | 37.22° C | 38% | 1010.1 hPa | 0 mm | - | - | - |
| 1787866803 | 37.22° C | 40% | 1010.3 hPa | 0 mm | - | - | - |
| 1787866203 | 37.22° C | 41% | 1010.5 hPa | 0 mm | - | - | - |
| 1787865603 | 37.22° C | 41% | 1010.7 hPa | 0 mm | - | - | - |
| 1787865003 | 37.22° C | 44% | 1010.7 hPa | 0 mm | - | - | - |
| 1787864403 | 36.11° C | 44% | 1010.8 hPa | 0 mm | - | - | - |
| 1787863803 | 36.11° C | 44% | 1010.8 hPa | 0 mm | - | - | - |
| 1787863203 | 36.11° C | 44% | 1010.9 hPa | 0 mm | - | - | - |
| 1787862604 | 36.11° C | 44% | 1011 hPa | 0 mm | - | - | - |
| 1787862003 | 36.11° C | 46% | 1011.2 hPa | 0 mm | - | - | - |
| 1787861403 | 36.11° C | 45% | 1011.3 hPa | 0 mm | - | - | - |
| 1787860803 | 36.11° C | 44% | 1011.3 hPa | 0 mm | - | - | - |
| 1787860203 | 36.11° C | 44% | 1011.4 hPa | 0 mm | - | - | - |
| 1787859603 | 36.11° C | 45% | 1011.6 hPa | 0 mm | - | - | - |
| 1787859003 | 36.11° C | 46% | 1011.7 hPa | 0 mm | - | - | - |
| 1787858403 | 36.11° C | 48% | 1011.8 hPa | 0 mm | - | - | - |
| 1787857803 | 35° C | 46% | 1011.9 hPa | 0 mm | - | - | - |
| 1787857203 | 36.11° C | 46% | 1012.1 hPa | 0 mm | - | - | - |
| 1787856603 | 35° C | 48% | 1012.2 hPa | 0 mm | - | - | - |
| 1787856011 | 35° C | 49% | 1012.3 hPa | 0 mm | - | - | - |
| 1787855403 | 35° C | 49% | 1012.5 hPa | 0 mm | - | - | - |
| 1787854805 | 35° C | 50% | 1012.4 hPa | 0 mm | - | - | - |
| 1787854204 | 35° C | 51% | 1012.3 hPa | 0 mm | - | - | - |
| 1787853603 | 33.89° C | 52% | 1012.4 hPa | 0 mm | - | - | - |
* Rain latest hour (hover to see other rain measurements)
** Current wind speed in m/s (hover to see current wind gust speed)